Temperature
14 14 15 15 14 14 14 14 14 15 15 16 15 15 15 14 14 14 14 14 14 14 14 14 14 14 14 14 14 14 14 14 14 15 14 15 15 15
15 14 14 14 14 14 14 14 14 14 14 15 15 15 15 14 14 14 14 14 14 14 14 14 14 14 14 14 14 14 14 14 14 14 14 14 14 14
15 15 15 15 15 14 14 14 14 14 14 15 15 14 14 14 14 14 13 13 13 13 13 13 14 14 14 14 14 14 14 14 14 14 14 14 14 14
15 15 15 15 15 15 15 14 14 14 14 14 14 14 14 14 14 13 13 13 13 13 13 13 13 13 13 13 13 14 14 14 14 14 14 14 14 14
16 16 15 15 15 15 15 15 14 14 14 14 14 14 14 14 13 13 13 13 13 13 13 13 13 13 13 13 13 13 13 13 13 13 13 13 13 14
16 16 16 15 15 15 15 15 15 14 14 13 13 14 14 14 14 13 13 13 13 13 13 13 13 13 13 13 13 13 13 13 13 13 13 13 13 13
16 16 16 16 15 15 15 15 14 14 14 13 13 13 14 14 14 14 13 13 13 13 13 13 13 13 13 13 13 13 13 13 13 13 13 13 13 13
15 15 15 15 15 15 15 15 14 14 14 14 13 13 14 14 14 14 13 13 13 13 13 13 13 13 13 13 13 13 13 13 12 12 12 12 13 13
15 15 15 14 14 14 14 14 14 14 14 14 13 14 14 14 14 13 13 13 13 13 13 13 13 13 13 12 12 12 12 12 12 12 12 12 12 12
14 14 14 14 14 14 13 13 14 14 14 14 14 14 14 14 13 13 13 12 12 13 12 12 13 13 12 12 12 12 12 12 12 12 12 12 12 12
14 13 13 13 13 13 13 13 13 13 13 13 13 13 13 13 13 12 12 11 11 12 12 12 12 12 12 12 12 12 12 12 12 12 12 12 12 12
13 13 13 12 12 12 12 12 12 13 12 12 12 12 12 13 13 12 12 11 11 11 12 12 12 12 12 12 12 12 12 12 12 12 12 12 11 11
12 12 12 12 12 12 12 12 12 12 12 12 12 12 12 12 12 12 12 12 11 11 12 12 12 12 12 12 12 12 12 12 12 12 12 12 11 11
11 10 10 11 11 11 11 11 11 11 11 11 11 11 11 11 11 11 12 12 12 12 12 12 12 12 12 12 12 12 12 12 12 12 12 12 11 11
9 9 9 10 10 10 10 10 10 10 10 10 10 10 10 11 11 11 11 11 11 11 11 12 11 11 11 11 11 11 11 11 12 12 12 12 11 11
8 8 9 9 9 9 9 9 10 10 10 10 10 10 10 10 10 10 11 11 11 11 11 11 11 11 11 11 11 11 11 11 11 11 11 11 11 11
7 7 8 8 8 8 8 8 9 9 9 9 10 10 10 10 10 10 10 10 10 10 11 11 11 11 11 11 10 10 10 10 11 11 11 11 11 11
6 7 7 7 7 7 7 8 8 8 9 9 9 9 9 9 9 10 10 10 10 10 10 10 10 10 10 10 10 10 10 10 10 10 11 10 11 11
6 6 6 6 6 6 6 7 7 7 8 8 8 8 8 9 9 9 9 9 9 9 10 10 10 10 10 9 10 10 10 10 10 10 10 10 10 10
5 5 5 5 5 5 6 6 6 6 6 7 7 7 8 8 8 8 8 9 9 9 9 9 10 10 10 10 10 10 10 10 10 10 10 10 10 10
5 5 5 4 4 5 5 5 5 5 6 6 6 6 7 7 7 8 8 8 8 8 9 9 9 10 10 10 9 9 10 10 10 10 10 10 10 10
4 4 4 4 4 4 4 4 4 5 5 5 6 6 6 7 7 7 7 7 8 8 8 9 9 9 9 9 9 9 10 10 10 10 10 10 10 10
3 3 3 3 3 3 4 4 4 4 4 4 5 5 6 6 6 7 7 7 7 7 8 8 8 9 9 9 9 9 9 9 9 10 10 10 10 10
Wind_Speed
4 5 4 4 3 3 2 2 2 4 4 1 1 3 6 7 9 7 6 9 11 11 11 11 11 11 10 11 12 12 12 13 13 15 16 16 17 18
4 4 3 4 4 3 3 3 3 3 4 3 2 2 2 3 7 7 7 10 14 16 16 16 15 14 13 13 13 13 14 14 14 14 15 16 17 18
6 6 6 6 4 4 3 3 4 4 5 5 4 3 2 3 4 7 10 12 13 19 21 21 19 18 17 16 15 15 15 15 15 15 15 16 17 18
8 7 7 7 8 6 5 6 5 5 5 6 5 5 6 6 6 6 9 12 13 15 19 21 21 21 20 19 18 18 18 18 17 17 17 17 17 17
8 9 8 8 8 7 7 7 6 7 5 6 7 6 6 6 6 7 8 7 13 14 17 22 24 24 23 22 22 22 21 21 20 20 19 19 19 19
9 9 9 9 9 9 9 9 8 7 7 7 7 7 6 7 5 6 6 6 8 10 11 13 19 25 26 26 26 25 25 24 23 22 21 21 21 20
10 10 11 12 13 11 11 9 9 9 8 8 8 7 7 6 6 6 7 6 6 7 6 6 8 10 16 23 27 27 27 27 26 24 24 23 22 22
10 10 11 13 15 17 18 16 13 11 10 9 9 9 9 7 6 6 6 6 6 5 5 6 5 6 6 12 19 26 29 29 28 27 26 25 24 23
9 9 12 14 13 13 15 19 19 20 19 14 13 13 11 8 7 8 7 8 8 5 4 6 6 6 6 14 18 21 25 27 28 28 27 27 26 25
10 10 10 11 13 11 11 13 14 15 18 17 16 17 15 11 10 10 9 9 8 8 8 9 8 8 9 10 17 19 22 25 27 28 28 28 27 26
10 11 11 12 14 14 13 13 13 13 17 21 21 20 23 22 15 9 9 10 11 9 9 10 10 9 9 8 13 20 23 26 27 28 28 28 28 25
8 9 12 11 11 10 10 12 14 14 14 15 14 16 18 19 20 16 14 13 12 10 9 9 9 8 8 8 8 9 13 20 26 28 28 28 27 17
7 7 6 6 8 10 10 11 15 14 12 13 13 12 12 12 14 15 15 16 15 14 10 9 9 8 8 7 6 6 6 6 10 15 24 27 27 19
8 8 8 12 14 14 13 15 18 15 12 12 13 13 12 12 12 14 15 16 16 17 13 10 8 8 8 8 7 6 6 6 7 8 8 17 23 26
9 12 15 17 17 15 17 19 15 12 11 13 14 14 13 12 12 11 13 15 17 19 20 16 14 11 10 10 9 7 7 6 7 7 7 8 7 7
10 13 16 19 18 17 16 15 12 12 13 13 13 12 10 11 12 12 12 11 13 14 14 17 15 15 14 13 11 10 8 8 7 7 7 7 7 6
11 12 12 12 12 11 10 10 10 10 11 11 12 12 11 11 12 11 11 11 12 12 11 11 13 14 15 13 13 12 10 9 8 8 8 8 8 8
11 12 12 12 12 12 12 11 10 10 10 10 10 10 11 11 11 11 10 11 12 12 11 10 9 10 11 14 16 14 12 10 9 9 8 9 9 8
10 11 11 11 11 11 11 11 12 11 10 10 11 11 11 11 11 11 11 11 12 12 11 10 10 11 13 14 11 16 15 12 10 10 9 9 9 8
9 10 10 11 11 11 11 11 11 12 11 11 11 11 11 11 11 11 10 12 12 12 11 11 11 11 13 13 9 9 15 14 12 11 10 8 8 10
11 11 11 11 12 11 12 12 12 12 12 12 12 12 11 11 11 11 11 15 14 12 12 12 11 13 10 8 9 10 9 15 15 12 10 9 8 7
11 11 11 11 11 11 11 11 12 12 12 12 12 11 11 10 11 12 11 11 11 11 12 10 9 8 8 10 12 11 11 9 13 18 16 14 9 9
11 11 11 11 11 11 10 11 13 12 11 11 11 11 11 11 11 10 10 10 10 10 10 9 8 8 9 11 11 10 12 10 8 8 10 16 19 20
Wind_Direction
232 217 228 271 255 267 284 288 295 308 315 252 198 157 166 179 180 203 227 225 223 230 238 244 248 251 253 255 256 255 256 256 254 251 249 249 249 249
236 261 244 273 282 256 249 258 260 270 285 318 296 222 185 224 195 216 246 246 233 236 240 241 242 244 248 251 254 254 254 253 253 254 253 252 253 254
229 230 225 237 267 289 272 249 243 243 258 275 282 282 219 227 231 241 258 256 248 244 239 237 237 239 242 246 249 251 252 252 252 253 254 254 254 255
226 232 233 233 222 235 257 266 257 247 248 267 274 274 257 230 220 222 248 260 260 255 238 233 233 234 237 241 244 246 247 249 250 251 252 253 254 255
229 229 230 234 236 232 231 243 252 255 238 245 255 250 248 244 233 232 240 246 260 263 242 232 231 233 236 238 241 243 245 246 247 249 251 253 253 254
235 235 234 231 233 233 239 237 242 253 258 256 256 253 247 238 224 224 242 238 242 253 251 237 230 232 235 237 239 241 243 244 245 247 248 250 251 253
235 236 240 239 237 237 242 239 236 237 243 247 251 250 245 236 229 221 236 242 239 235 239 237 223 224 231 237 240 243 242 242 243 243 245 246 248 250
236 238 242 243 242 238 240 243 244 246 248 248 253 252 251 244 238 237 240 246 256 243 237 243 232 233 228 232 234 234 237 238 239 240 241 242 243 246
248 247 253 255 246 240 237 237 242 243 242 246 255 257 259 260 257 253 245 246 251 250 268 266 252 250 245 256 253 240 232 232 234 236 238 239 240 242
259 258 258 261 263 261 258 250 240 241 239 241 245 250 253 255 257 258 259 260 256 247 240 255 255 252 255 252 253 245 232 228 229 232 234 237 239 241
265 266 264 263 262 262 263 264 261 255 249 241 232 235 238 242 244 254 254 254 257 250 230 237 243 243 241 240 242 242 233 229 229 231 234 237 239 241
280 274 270 272 281 281 272 269 267 265 266 266 253 245 244 245 238 236 242 248 253 255 240 236 240 238 246 238 234 235 230 231 231 233 235 237 239 239
297 298 298 328 322 311 298 281 274 277 278 273 268 260 248 242 239 234 232 236 242 245 243 239 243 239 238 240 232 226 219 219 223 232 237 239 239 229
303 301 306 318 314 304 293 276 273 275 273 269 266 262 258 253 245 239 232 229 231 238 243 244 251 250 252 252 247 237 233 229 224 222 220 228 233 232
297 303 310 307 303 295 280 273 272 270 266 264 263 261 258 257 253 247 241 237 233 235 239 237 242 248 251 253 253 246 244 241 234 233 228 223 216 208
313 314 309 294 284 274 275 276 267 261 258 261 263 263 260 259 260 256 252 246 243 242 236 233 232 234 241 243 247 248 244 244 240 238 234 234 229 215
313 304 296 292 289 286 283 279 276 274 266 261 263 263 261 260 260 258 256 254 251 248 243 234 232 230 233 236 242 244 245 245 242 238 239 244 239 232
303 297 295 294 294 296 297 295 291 286 284 282 279 275 270 266 265 262 258 255 255 254 250 241 235 236 239 241 232 241 245 247 245 240 239 244 248 240
295 295 297 299 300 301 300 300 300 298 294 289 285 284 281 276 269 265 264 261 259 257 252 243 236 232 241 247 236 220 232 239 240 240 239 239 244 241
307 308 309 309 309 308 307 305 304 304 301 298 291 286 284 281 275 268 263 261 260 258 255 248 238 232 235 244 249 238 221 229 237 239 241 242 244 243
316 315 315 315 313 311 311 310 307 302 298 297 294 289 285 281 279 274 269 266 262 261 256 252 245 235 235 236 248 251 239 223 225 232 232 237 245 249
316 316 314 310 309 307 306 304 303 301 299 296 295 292 290 287 282 277 275 272 267 263 262 258 250 241 235 237 244 248 249 241 230 232 236 234 234 239
318 316 314 313 312 310 309 308 308 306 305 304 301 298 295 291 286 281 278 276 273 270 266 262 255 247 243 241 244 248 249 247 243 237 242 239 236 241
Height
1557 1558 1558 1559 1560 1561 1561 1562 1563 1562 1562 1561 1561 1561 1560 1560 1559 1558 1558 1557 1556 1556 1556 1556 1556 1556 1557 1557 1557 1558 1559 1560 1561 1562 1563 1565 1566 1568
1555 1555 1556 1557 1558 1558 1559 1559 1560 1560 1559 1559 1559 1559 1558 1558 1557 1555 1554 1553 1552 1551 1551 1551 1551 1551 1551 1552 1552 1553 1553 1554 1555 1556 1557 1558 1560 1561
1552 1553 1553 1554 1554 1555 1555 1556 1556 1557 1556 1555 1556 1555 1554 1554 1553 1552 1550 1549 1548 1547 1547 1547 1546 1546 1546 1546 1546 1547 1547 1548 1549 1550 1551 1552 1553 1554
1549 1550 1550 1551 1551 1551 1551 1551 1552 1552 1552 1551 1550 1550 1550 1549 1548 1547 1546 1545 1544 1544 1543 1542 1542 1541 1541 1540 1540 1540 1541 1541 1542 1543 1544 1545 1546 1547
1546 1546 1546 1547 1547 1547 1547 1547 1547 1547 1547 1547 1545 1545 1545 1545 1544 1542 1541 1540 1540 1539 1538 1537 1537 1536 1536 1535 1535 1534 1535 1535 1536 1536 1537 1538 1539 1540
1541 1542 1542 1542 1542 1542 1542 1542 1542 1542 1542 1541 1540 1540 1540 1539 1539 1537 1536 1535 1535 1534 1534 1532 1531 1531 1530 1530 1529 1529 1528 1528 1529 1529 1530 1530 1531 1532
1536 1536 1537 1537 1537 1537 1537 1537 1537 1536 1536 1535 1534 1534 1534 1534 1533 1532 1531 1530 1530 1529 1528 1527 1526 1525 1524 1524 1523 1523 1522 1522 1522 1522 1523 1523 1523 1524
1530 1530 1531 1531 1531 1531 1530 1531 1531 1530 1529 1529 1528 1527 1527 1527 1527 1527 1526 1525 1523 1524 1523 1521 1521 1519 1518 1518 1517 1517 1516 1516 1516 1516 1516 1516 1516 1516
1524 1524 1524 1524 1524 1524 1523 1523 1523 1522 1522 1521 1520 1519 1519 1520 1521 1520 1518 1517 1516 1516 1516 1514 1514 1512 1512 1511 1511 1511 1510 1510 1509 1509 1509 1508 1508 1508
1518 1517 1517 1517 1517 1517 1516 1514 1513 1513 1513 1512 1510 1510 1511 1511 1512 1512 1511 1509 1508 1507 1508 1505 1504 1504 1504 1504 1504 1503 1503 1502 1502 1502 1501 1501 1500 1499
1510 1510 1509 1508 1508 1508 1507 1505 1504 1503 1503 1502 1501 1500 1501 1501 1502 1502 1501 1500 1498 1497 1499 1497 1496 1496 1495 1495 1495 1495 1495 1495 1494 1494 1494 1493 1492 1491
1503 1503 1502 1501 1500 1499 1498 1496 1494 1493 1494 1493 1492 1491 1490 1490 1491 1491 1490 1490 1488 1487 1489 1490 1488 1488 1487 1487 1487 1487 1487 1487 1487 1486 1486 1486 1485 1484
1496 1495 1495 1493 1491 1490 1488 1486 1484 1484 1482 1481 1480 1479 1479 1478 1478 1478 1478 1478 1477 1476 1478 1481 1480 1480 1479 1478 1478 1479 1479 1479 1479 1478 1478 1478 1478 1477
1489 1488 1487 1485 1483 1481 1479 1477 1476 1474 1472 1470 1468 1467 1467 1466 1466 1466 1466 1466 1465 1465 1468 1470 1470 1471 1470 1469 1469 1470 1470 1471 1471 1470 1470 1470 1470 1469
1483 1481 1479 1476 1474 1471 1470 1468 1466 1464 1461 1459 1456 1455 1455 1455 1455 1455 1454 1454 1454 1454 1455 1457 1459 1459 1460 1460 1460 1460 1461 1461 1462 1462 1462 1462 1461 1461
1476 1473 1470 1468 1465 1463 1460 1458 1456 1454 1452 1449 1447 1445 1445 1444 1443 1443 1443 1443 1443 1442 1444 1445 1447 1448 1448 1449 1450 1450 1451 1451 1452 1453 1453 1453 1453 1453
1469 1465 1462 1459 1456 1454 1452 1450 1448 1446 1444 1441 1438 1436 1435 1434 1433 1433 1433 1432 1432 1431 1432 1434 1435 1436 1437 1438 1438 1439 1440 1441 1442 1444 1444 1443 1443 1444
1463 1459 1455 1453 1450 1447 1445 1442 1440 1438 1435 1433 1430 1427 1426 1424 1423 1422 1422 1422 1421 1421 1421 1423 1425 1426 1426 1426 1428 1428 1430 1431 1432 1434 1435 1434 1433 1434
1458 1454 1451 1448 1445 1442 1438 1435 1432 1429 1427 1424 1421 1419 1417 1415 1414 1413 1413 1412 1411 1411 1411 1412 1414 1416 1416 1414 1415 1419 1420 1421 1422 1423 1424 1425 1424 1425
1454 1450 1446 1443 1439 1435 1432 1428 1424 1421 1418 1416 1413 1411 1409 1407 1405 1404 1403 1402 1401 1401 1401 1402 1403 1404 1405 1405 1407 1409 1411 1411 1413 1413 1414 1415 1416 1417
1449 1445 1441 1437 1433 1429 1425 1421 1418 1414 1411 1408 1405 1403 1400 1398 1396 1395 1394 1393 1392 1392 1391 1391 1392 1395 1396 1398 1398 1398 1400 1402 1403 1404 1406 1407 1407 1408
1443 1439 1435 1431 1427 1423 1419 1415 1411 1407 1403 1400 1397 1394 1392 1390 1388 1386 1385 1384 1383 1382 1382 1382 1384 1386 1387 1387 1387 1388 1390 1393 1394 1395 1397 1398 1398 1397
1438 1434 1429 1425 1421 1417 1413 1409 1405 1401 1397 1393 1390 1387 1384 1382 1380 1378 1377 1376 1374 1374 1373 1374 1375 1377 1377 1378 1379 1380 1381 1383 1385 1385 1386 1387 1389 1390